• In Germany
  • List of Countries
  • For 7 days
  • Water Temperature
  • Satellite Maps
  • Weather Map
  • Weather Widgets
  • user-avatar
    Login

    Hourly Weather New Bedford

    Today, 24 September, Sunday

    Time Temperature Precipitation Wind Pressure Humidity
    00:00 +18°C° 0 mm 2 mps 761 mmHg 94%
    01:00 +18°C° 0 mm 2 mps 761 mmHg 93%
    02:00 +18°C° 0 mm 2 mps 761 mmHg 93%
    03:00 +18°C° 0 mm 2 mps 761 mmHg 92%
    04:00 +18°C° 0 mm 2 mps 761 mmHg 92%
    05:00 +18°C° 0 mm 2 mps 762 mmHg 88%
    06:00 +19°C° 0 mm 2 mps 762 mmHg 85%
    07:00 +20°C° 0 mm 2 mps 762 mmHg 82%
    08:00 +23°C° 0 mm 2 mps 762 mmHg 73%
    09:00 +26°C° 0 mm 2 mps 762 mmHg 64%
    10:00 +28°C° 0 mm 2 mps 763 mmHg 55%
    11:00 +29°C° 0 mm 2 mps 762 mmHg 52%
    12:00 +30°C° 0 mm 2 mps 762 mmHg 50%
    13:00 +31°C° 0 mm 2 mps 762 mmHg 48%
    14:00 +30°C° 0 mm 2 mps 762 mmHg 51%
    15:00 +29°C° 0 mm 2 mps 761 mmHg 54%
    16:00 +28°C° 0 mm 2 mps 761 mmHg 57%
    17:00 +26°C° 0 mm 2 mps 761 mmHg 65%
    18:00 +24°C° 0 mm 2 mps 761 mmHg 73%
    19:00 +21°C° 0 mm 2 mps 762 mmHg 80%
    20:00 +21°C° 0 mm 2 mps 762 mmHg 82%
    21:00 +20°C° 0 mm 2 mps 762 mmHg 84%
    22:00 +21°C° 0 mm 1 mps 762 mmHg 86%
    23:00 +21°C° 0 mm 1 mps 762 mmHg 86%

    Tomorrow, 25 September, Monday

    Time Temperature Precipitation Wind Pressure Humidity
    00:00 +21°C° 0 mm 1 mps 762 mmHg 86%
    01:00 +20°C° 0 mm 1 mps 762 mmHg 86%
    02:00 +20°C° 0 mm 1 mps 762 mmHg 86%
    03:00 +20°C° 0 mm 1 mps 761 mmHg 86%
    04:00 +20°C° 0 mm 1 mps 761 mmHg 85%
    05:00 +20°C° 0 mm 2 mps 762 mmHg 83%
    06:00 +21°C° 0 mm 2 mps 762 mmHg 80%
    07:00 +23°C° 0 mm 2 mps 762 mmHg 77%
    08:00 +25°C° 0 mm 2 mps 762 mmHg 70%
    09:00 +27°C° 0 mm 2 mps 762 mmHg 63%
    10:00 +29°C° 0 mm 2 mps 762 mmHg 56%
    11:00 +29°C° 0 mm 2 mps 762 mmHg 55%
    12:00 +30°C° 0 mm 3 mps 762 mmHg 54%
    13:00 +31°C° 0 mm 3 mps 762 mmHg 52%
    14:00 +30°C° 0 mm 3 mps 761 mmHg 56%
    15:00 +29°C° 0 mm 3 mps 761 mmHg 60%
    16:00 +28°C° 0 mm 4 mps 761 mmHg 64%
    17:00 +26°C° 0 mm 4 mps 761 mmHg 73%
    18:00 +24°C° 0 mm 3 mps 762 mmHg 82%
    19:00 +21°C° 0 mm 3 mps 762 mmHg 92%
    20:00 +21°C° 0 mm 3 mps 762 mmHg 94%
    21:00 +20°C° 0 mm 2 mps 762 mmHg 96%
    22:00 +20°C° 0 mm 2 mps 762 mmHg 98%
    23:00 +21°C° 0 mm 1 mps 762 mmHg 98%

    Day after tomorrow, 26 September, Tuesday

    Time Temperature Precipitation Wind Pressure Humidity
    00:00 +21°C° 0 mm 1 mps 762 mmHg 98%
    01:00 +21°C° 0 mm 1 mps 762 mmHg 98%
    02:00 +21°C° 0 mm 1 mps 762 mmHg 97%
    03:00 +21°C° 0 mm 1 mps 762 mmHg 97%
    04:00 +22°C° 0 mm 1 mps 762 mmHg 96%
    05:00 +22°C° 0 mm 1 mps 762 mmHg 95%
    06:00 +22°C° 0 mm 1 mps 762 mmHg 95%
    07:00 +22°C° 0 mm 1 mps 762 mmHg 94%
    08:00 +24°C° 0 mm 1 mps 762 mmHg 85%
    09:00 +26°C° 0 mm 1 mps 762 mmHg 77%
    10:00 +28°C° 0 mm 1 mps 762 mmHg 69%
    11:00 +29°C° 0 mm 2 mps 761 mmHg 66%
    12:00 +29°C° 0 mm 2 mps 761 mmHg 63%
    13:00 +30°C° 0 mm 2 mps 761 mmHg 61%
    14:00 +29°C° 0 mm 2 mps 760 mmHg 64%
    15:00 +28°C° 0 mm 2 mps 760 mmHg 68%
    16:00 +28°C° 0 mm 2 mps 760 mmHg 71%
    17:00 +26°C° 0 mm 2 mps 760 mmHg 79%
    18:00 +24°C° 0 mm 2 mps 761 mmHg 87%
    19:00 +23°C° 0 mm 2 mps 761 mmHg 96%
    20:00 +23°C° 0 mm 2 mps 761 mmHg 96%
    21:00 +21°C° 0 mm 2 mps 761 mmHg 97%
    22:00 +21°C° 0 mm 2 mps 761 mmHg 98%
    23:00 +21°C° 0 mm 2 mps 760 mmHg 98%

    27 September, Wednesday

    Time Temperature Precipitation Wind Pressure Humidity
    00:00 +21°C° 0 mm 2 mps 760 mmHg 98%
    01:00 +22°C° 0 mm 1 mps 760 mmHg 98%
    02:00 +22°C° 0 mm 1 mps 759 mmHg 98%
    03:00 +22°C° 0 mm 1 mps 759 mmHg 98%
    04:00 +22°C° 0 mm 1 mps 759 mmHg 98%
    05:00 +22°C° 0 mm 1 mps 759 mmHg 96%
    06:00 +23°C° 0 mm 1 mps 759 mmHg 95%
    07:00 +23°C° 0 mm 1 mps 759 mmHg 94%
    08:00 +25°C° 0 mm 2 mps 759 mmHg 85%
    09:00 +27°C° 0 mm 2 mps 759 mmHg 76%
    10:00 +29°C° 0 mm 2 mps 759 mmHg 68%
    11:00 +29°C° 0 mm 3 mps 759 mmHg 65%
    12:00 +30°C° 0 mm 3 mps 758 mmHg 63%
    13:00 +30°C° 0 mm 3 mps 758 mmHg 60%
    14:00 +29°C° 0 mm 4 mps 758 mmHg 63%
    15:00 +28°C° 0 mm 4 mps 757 mmHg 66%
    16:00 +28°C° 0 mm 4 mps 757 mmHg 69%
    17:00 +26°C° 0 mm 4 mps 757 mmHg 77%
    18:00 +25°C° 0 mm 4 mps 757 mmHg 84%
    19:00 +22°C° 0 mm 3 mps 757 mmHg 92%
    20:00 +22°C° 0 mm 3 mps 757 mmHg 94%
    21:00 +22°C° 0 mm 3 mps 757 mmHg 96%
    22:00 +22°C° 0 mm 3 mps 757 mmHg 98%
    23:00 +22°C° 0 mm 3 mps 756 mmHg 97%

    28 September, Thursday

    Time Temperature Precipitation Wind Pressure Humidity
    00:00 +22°C° 0 mm 3 mps 756 mmHg 97%
    01:00 +22°C° 0 mm 3 mps 755 mmHg 97%
    02:00 +22°C° 0 mm 3 mps 755 mmHg 97%
    03:00 +23°C° 0 mm 2 mps 755 mmHg 97%
    04:00 +23°C° 0 mm 2 mps 754 mmHg 98%
    05:00 +23°C° 0.4 mm 2 mps 754 mmHg 97%
    06:00 +23°C° 0.4 mm 2 mps 754 mmHg 97%
    07:00 +24°C° 0.4 mm 2 mps 754 mmHg 96%
    08:00 +25°C° 0.5 mm 2 mps 754 mmHg 93%
    09:00 +26°C° 0.5 mm 2 mps 754 mmHg 90%
    10:00 +27°C° 0.5 mm 2 mps 753 mmHg 87%
    11:00 +27°C° 0.8 mm 2 mps 753 mmHg 86%
    12:00 +27°C° 0.8 mm 2 mps 752 mmHg 84%
    13:00 +28°C° 0.8 mm 2 mps 752 mmHg 83%
    14:00 +27°C° 1 mm 2 mps 752 mmHg 83%
    15:00 +27°C° 1 mm 2 mps 752 mmHg 84%
    16:00 +26°C° 1 mm 2 mps 752 mmHg 84%
    17:00 +25°C° 0.3 mm 3 mps 752 mmHg 78%
    18:00 +23°C° 0.3 mm 4 mps 753 mmHg 71%
    19:00 +22°C° 0.3 mm 5 mps 753 mmHg 65%
    20:00 +21°C° 0 mm 6 mps 753 mmHg 62%
    21:00 +20°C° 0 mm 6 mps 754 mmHg 58%
    22:00 +18°C° 0 mm 7 mps 754 mmHg 55%
    23:00 +17°C° 0 mm 7 mps 754 mmHg 58%

    29 September, Friday

    Time Temperature Precipitation Wind Pressure Humidity
    00:00 +16°C° 0 mm 7 mps 755 mmHg 62%
    01:00 +15°C° 0 mm 7 mps 755 mmHg 65%
    02:00 +14°C° 0 mm 6 mps 755 mmHg 67%
    03:00 +14°C° 0 mm 6 mps 756 mmHg 69%
    04:00 +13°C° 0 mm 6 mps 756 mmHg 71%
    05:00 +13°C° 0 mm 6 mps 756 mmHg 69%
    06:00 +14°C° 0 mm 6 mps 756 mmHg 68%
    07:00 +14°C° 0 mm 6 mps 756 mmHg 67%
    08:00 +15°C° 0 mm 5 mps 756 mmHg 61%
    09:00 +16°C° 0 mm 5 mps 756 mmHg 56%
    10:00 +17°C° 0 mm 5 mps 756 mmHg 50%
    11:00 +19°C° 0 mm 5 mps 756 mmHg 46%
    12:00 +20°C° 0 mm 4 mps 756 mmHg 41%
    13:00 +21°C° 0 mm 4 mps 755 mmHg 37%
    14:00 +21°C° 0 mm 4 mps 755 mmHg 37%
    15:00 +21°C° 0 mm 3 mps 755 mmHg 37%
    16:00 +21°C° 0 mm 3 mps 755 mmHg 37%
    17:00 +20°C° 0 mm 2 mps 755 mmHg 42%
    18:00 +18°C° 0 mm 2 mps 756 mmHg 47%
    19:00 +16°C° 0 mm 1 mps 756 mmHg 51%
    20:00 +16°C° 0 mm 2 mps 757 mmHg 53%
    21:00 +15°C° 0 mm 4 mps 757 mmHg 54%
    22:00 +15°C° 0 mm 5 mps 757 mmHg 55%
    23:00 +14°C° 0 mm 5 mps 758 mmHg 59%
    Show more